Weather History for KHLG - October, 2012

Change the Weather History Date:

Saturday, October 20, 2012

  Actual Average Record
Temperature  
Mean Temperature 49 °F 52 °F  
Max Temperature 53 °F 61 °F 77 °F (1949)
Min Temperature 45 °F 43 °F 25 °F (1952)
Degree Days  
Heating Degree Days 16 13  
Month to date heating degree days 225 207  
Since 1 July heating degree days 350 308  
Cooling Degree Days 0    
Month to date cooling degree days 9  
Year to date cooling degree days 983  
Moisture  
Dew Point 41 °F    
Average Humidity 74    
Maximum Humidity 86    
Minimum Humidity 61    
Precipitation  
Precipitation 0.06 in 0.09 in 0.69 in (2006)
Month to date precipitation 0.67 1.68  
Sea Level Pressure  
Sea Level Pressure 29.81 in    
Wind  
Wind Speed 9 mph (SW)    
Max Wind Speed 21 mph    
Max Gust Speed 25 mph    
Visibility 10 miles    
Events Rain    
T = Trace of Precipitation, MM = Missing Value Source: NWS Daily Summary

Daily Weather History Graph

Daily Weather History Graph

Search for Another Location

Airport or City:

Trip Planner

Search our weather history database for the weather conditions in past years. The results will help you decide how hot, cold, wet, or windy it might be!

Date:

Astronomy

Oct. 20, 2012 Rise Set
Actual Time 7:39 AM EDT 6:34 PM EDT
Civil Twilight 7:11 AM EDT 7:02 PM EDT
Nautical Twilight 6:39 AM EDT 7:33 PM EDT
Astronomical Twilight 6:08 AM EDT 8:05 PM EDT
Moon 1:13 PM EDT (10/20) 11:18 PM EDT (10/20)
Length of Visible Light 11h 50m
Length of Day
10h 55m
Waxing Crescent, 34% of the Moon is Illuminated
Oct 20
Waxing Crescent
Oct 21
First Quarter
Oct 29
Full
Nov 6
Last Quarter
Nov 13
New

Hourly Weather History & Observations

Time (EDT) Temp. Windchill Dew Point Humidity Pressure Visibility Wind Dir Wind Speed Gust Speed Precip Events Conditions
12:53 AM 46.9 °F - 39.9 °F 77% 29.73 in 10.0 mi SSW 9.2 mph 21.9 mph N/A   Overcast
1:27 AM 46.4 °F 41.9 °F 41.0 °F 81% 29.73 in 10.0 mi SW 9.2 mph 17.3 mph N/A   Overcast
1:35 AM 46.4 °F 42.4 °F 41.0 °F 81% 29.72 in 10.0 mi SW 8.1 mph - N/A   Overcast
1:53 AM 46.9 °F - 41.0 °F 80% 29.73 in 10.0 mi SSW 9.2 mph - N/A   Overcast
2:53 AM 46.9 °F - 41.0 °F 80% 29.73 in 10.0 mi SW 5.8 mph - N/A   Overcast
3:53 AM 46.9 °F - 41.0 °F 80% 29.73 in 10.0 mi SSW 5.8 mph - N/A   Overcast
4:53 AM 46.0 °F 42.5 °F 43.0 °F 89% 29.74 in 10.0 mi SW 6.9 mph - 0.00 in   Overcast
5:42 AM 46.4 °F 41.9 °F 42.8 °F 87% 29.74 in 10.0 mi WSW 9.2 mph 17.3 mph N/A   Overcast
6:53 AM 46.9 °F - 41.0 °F 80% 29.75 in 10.0 mi SW 10.4 mph - N/A   Overcast
7:53 AM 46.0 °F 41.4 °F 41.0 °F 83% 29.77 in 10.0 mi SW 9.2 mph - N/A   Overcast
8:53 AM 46.9 °F - 41.0 °F 80% 29.78 in 10.0 mi SW 12.7 mph 21.9 mph N/A   Mostly Cloudy
9:21 AM 46.4 °F 41.5 °F 41.0 °F 81% 29.77 in 10.0 mi WSW 10.4 mph - N/A   Mostly Cloudy
9:31 AM 48.2 °F - 42.8 °F 82% 29.77 in 10.0 mi SW 9.2 mph - N/A   Mostly Cloudy
9:38 AM 48.2 °F - 41.0 °F 76% 29.77 in 10.0 mi SW 9.2 mph 18.4 mph N/A   Overcast
9:53 AM 48.0 °F - 41.0 °F 77% 29.79 in 10.0 mi WSW 9.2 mph - N/A   Overcast
10:53 AM 50.0 °F - 39.9 °F 68% 29.80 in 10.0 mi SW 11.5 mph 18.4 mph N/A   Overcast
11:15 AM 50.0 °F - 39.2 °F 66% 29.79 in 10.0 mi SW 12.7 mph - N/A   Overcast
11:53 AM 50.0 °F - 39.0 °F 66% 29.81 in 10.0 mi WSW 15.0 mph - N/A   Overcast
12:05 PM 50.0 °F - 39.2 °F 66% 29.79 in 10.0 mi SW 10.4 mph - N/A   Overcast
12:46 PM 48.2 °F - 41.0 °F 76% 29.80 in 6.0 mi WSW 12.7 mph 25.3 mph 0.01 in Rain Rain
12:53 PM 48.0 °F - 42.1 °F 80% 29.82 in 10.0 mi WSW 9.2 mph 19.6 mph 0.01 in Rain Light Rain
1:00 PM 46.4 °F 41.5 °F 42.8 °F 87% 29.80 in 6.0 mi SW 10.4 mph 18.4 mph 0.01 in Rain Rain
1:53 PM 48.9 °F - 45.0 °F 86% 29.82 in 10.0 mi SW 10.4 mph 18.4 mph 0.03 in   Overcast
2:41 PM 50.0 °F - 42.8 °F 76% 29.80 in 10.0 mi SW 12.7 mph 24.2 mph N/A   Overcast
2:53 PM 51.1 °F - 42.1 °F 71% 29.81 in 10.0 mi SW 11.5 mph 21.9 mph N/A   Mostly Cloudy
3:53 PM 52.0 °F - 39.9 °F 63% 29.83 in 10.0 mi WSW 12.7 mph 19.6 mph N/A   Overcast
4:53 PM 50.0 °F - 42.1 °F 74% 29.85 in 10.0 mi SW 8.1 mph 20.7 mph 0.01 in   Overcast
5:53 PM 51.1 °F - 41.0 °F 68% 29.87 in 10.0 mi WSW 10.4 mph - 0.01 in   Mostly Cloudy
6:53 PM 51.1 °F - 39.0 °F 63% 29.88 in 10.0 mi WSW 9.2 mph - N/A   Overcast
7:53 PM 50.0 °F - 39.0 °F 66% 29.90 in 10.0 mi WSW 6.9 mph - N/A   Mostly Cloudy
8:53 PM 50.0 °F - 37.9 °F 63% 29.92 in 10.0 mi WSW 11.5 mph - N/A   Overcast
9:53 PM 48.9 °F - 39.0 °F 69% 29.94 in 10.0 mi SW 6.9 mph - N/A   Overcast
10:53 PM 48.0 °F - 39.0 °F 71% 29.96 in 10.0 mi SW 6.9 mph - N/A   Overcast
11:53 PM 46.9 °F - 41.0 °F 80% 29.97 in 10.0 mi SW 8.1 mph - N/A   Scattered Clouds